カタログに戻る

SL-8 R/B

運用中PO
NORAD 27819·ROCKET BODY·🇷🇺 Russia

打ち上げ Jun 4, 2003 から Plesetsk Cosmodrome

Loading…

次のパス (今後24時間)

TLE

最新Source: Space-Track

元期: Sep 14, 2026, 08:39 UTC

1 27819U 03023B   26257.36107362  .00000125  00000-0  11528-3 0  9993
2 27819  82.9467  48.4085 0046660  15.6297 358.0301 13.74551310167482

AllMySatでSL-8 R/Bをリアルタイム追跡

Download on the App Store